カタログに戻る

STARLINK-31972

運用中通信VLEO
NORAD 59923·PAYLOAD·🇺🇸 United States

打ち上げ Jun 1, 2024 から Cape Canaveral Space Force Station

Loading…

次のパス (今後24時間)

TLE

最新Source: CelesTrak SupGP

元期: Sep 14, 2026, 22:11 UTC

1 59923C 24106B   26257.92479167 -.00021912  00000+0 -79390-3 0  2572
2 59923  43.0015 343.9243 0001663 276.2064  48.9412 15.27578412    15

AllMySatでSTARLINK-31972をリアルタイム追跡

Download on the App Store